|
ตารางข้อมูล |
ค้นข้อมูล1 |
ค้นข้อมูล2 |
ค่าสูงสุด-ต่ำสุด |
Select Sensor -->| 20402 | 4529A | 4529C | 4529D | 89M1A | 89M1B | หน้าจอย่อ | 4529 |
ข้อมูลรวม (ยังไม่ได้เลือก Sensor)
| ID | Date Time | Room | Temp | Humidity | RSSI | Time |
|---|
| 1153413 | 2026-09-03 11:50:54 | 89M1B | 33.5 °C | 65.9 % | | 11:50 |
| 1153412 | 2026-09-03 11:49:06 | 89M1A | 35.1 °C | 62.2 % | | 11:49 |
| 1153411 | 2026-09-03 11:48:50 | 4529C | 30.9 °C | 56.1 % | | 11:48 |
| 1153410 | 2026-09-03 11:48:44 | 20402 | 30.2 °C | 45.4 % | | 11:48 |
| 1153409 | 2026-09-03 11:48:38 | 4529D | 30.5 °C | 62.0 % | | 11:48 |
| 1153408 | 2026-09-03 11:43:46 | 4529A | 30.1 °C | 63.0 % | | 11:43 |
| 1153407 | 2026-09-03 11:41:15 | 89M1B | 33.4 °C | 66.3 % | | 11:41 |
| 1153406 | 2026-09-03 11:39:30 | 89M1A | 35.2 °C | 60.7 % | | 11:39 |
| 1153405 | 2026-09-03 11:39:05 | 4529D | 30.3 °C | 61.6 % | | 11:39 |
| 1153404 | 2026-09-03 11:38:47 | 4529C | 31.0 °C | 56.0 % | | 11:38 |
| 1153403 | 2026-09-03 11:38:34 | 20402 | 30.2 °C | 45.5 % | | 11:38 |
| 1153402 | 2026-09-03 11:33:43 | 4529A | 29.7 °C | 58.8 % | | 11:33 |
| 1153401 | 2026-09-03 11:31:36 | 89M1B | 33.2 °C | 66.7 % | | 11:31 |
| 1153400 | 2026-09-03 11:29:52 | 89M1A | 35.4 °C | 60.2 % | | 11:29 |
| 1153399 | 2026-09-03 11:29:31 | 4529D | 30.3 °C | 61.3 % | | 11:29 |
| 1153398 | 2026-09-03 11:28:45 | 4529C | 30.9 °C | 55.4 % | | 11:28 |
| 1153397 | 2026-09-03 11:28:22 | 20402 | 30.0 °C | 45.0 % | | 11:28 |
| 1153396 | 2026-09-03 11:23:41 | 4529A | 29.5 °C | 63.0 % | | 11:23 |
| 1153395 | 2026-09-03 11:21:58 | 89M1B | 33.1 °C | 67.3 % | | 11:21 |
| 1153394 | 2026-09-03 11:20:15 | 89M1A | 35.7 °C | 60.5 % | | 11:20 |
| 1153393 | 2026-09-03 11:19:58 | 4529D | 30.2 °C | 61.1 % | | 11:19 |
| 1153392 | 2026-09-03 11:18:42 | 4529C | 30.8 °C | 55.3 % | | 11:18 |
| 1153391 | 2026-09-03 11:18:12 | 20402 | 30.0 °C | 44.8 % | | 11:18 |
| 1153390 | 2026-09-03 11:13:38 | 4529A | 29.9 °C | 64.7 % | | 11:13 |
| 1153389 | 2026-09-03 11:12:19 | 89M1B | 33.0 °C | 67.4 % | | 11:12 |
| 1153388 | 2026-09-03 11:10:37 | 89M1A | 35.5 °C | 61.0 % | | 11:10 |
| 1153387 | 2026-09-03 11:10:25 | 4529D | 30.1 °C | 60.7 % | | 11:10 |
| 1153386 | 2026-09-03 11:08:40 | 4529C | 30.8 °C | 54.4 % | | 11:08 |
| 1153385 | 2026-09-03 11:08:02 | 20402 | 30.0 °C | 44.5 % | | 11:08 |
| 1153384 | 2026-09-03 11:03:32 | 4529A | 30.2 °C | 65.2 % | | 11:03 |
| 1153383 | 2026-09-03 11:02:40 | 89M1B | 32.9 °C | 67.4 % | | 11:02 |
| 1153382 | 2026-09-03 11:01:00 | 89M1A | 35.1 °C | 58.7 % | | 11:01 |
| 1153381 | 2026-09-03 11:00:52 | 4529D | 30.2 °C | 59.4 % | | 11:00 |
| 1153380 | 2026-09-03 10:58:38 | 4529C | 30.8 °C | 54.2 % | | 10:58 |
| 1153379 | 2026-09-03 10:57:52 | 20402 | 30.0 °C | 44.4 % | | 10:57 |
| 1153378 | 2026-09-03 10:53:29 | 4529A | 29.6 °C | 63.1 % | | 10:53 |
| 1153377 | 2026-09-03 10:53:01 | 89M1B | 32.6 °C | 68.0 % | | 10:53 |
| 1153376 | 2026-09-03 10:51:23 | 89M1A | 36.1 °C | 57.0 % | | 10:51 |
| 1153375 | 2026-09-03 10:51:20 | 4529D | 30.4 °C | 56.2 % | | 10:51 |
| 1153374 | 2026-09-03 10:48:35 | 4529C | 30.7 °C | 53.5 % | | 10:48 |
| 1153373 | 2026-09-03 10:43:27 | 4529A | 29.5 °C | 68.0 % | | 10:43 |
| 1153372 | 2026-09-03 10:43:22 | 89M1B | 32.4 °C | 68.4 % | | 10:43 |
| 1153371 | 2026-09-03 10:41:48 | 4529D | 30.4 °C | 55.7 % | | 10:41 |
| 1153370 | 2026-09-03 10:41:45 | 89M1A | 35.9 °C | 57.5 % | | 10:41 |
| 1153369 | 2026-09-03 10:38:33 | 4529C | 30.7 °C | 53.1 % | | 10:38 |
| 1153368 | 2026-09-03 10:37:32 | 20402 | 29.8 °C | 43.8 % | | 10:37 |
| 1153367 | 2026-09-03 10:33:43 | 89M1B | 32.5 °C | 68.7 % | | 10:33 |
| 1153366 | 2026-09-03 10:33:24 | 4529A | 30.1 °C | 63.8 % | | 10:33 |
| 1153365 | 2026-09-03 10:32:15 | 4529D | 30.3 °C | 55.5 % | | 10:32 |
| 1153364 | 2026-09-03 10:32:06 | 89M1A | 35.5 °C | 60.1 % | | 10:32 |
| 1153363 | 2026-09-03 10:28:30 | 4529C | 30.6 °C | 52.6 % | | 10:28 |
| 1153362 | 2026-09-03 10:27:20 | 20402 | 29.7 °C | 42.8 % | | 10:27 |
| 1153361 | 2026-09-03 10:24:04 | 89M1B | 32.4 °C | 68.8 % | | 10:24 |
| 1153360 | 2026-09-03 10:23:14 | 4529A | 29.8 °C | 65.6 % | | 10:23 |
| 1153359 | 2026-09-03 10:22:41 | 4529D | 30.2 °C | 55.3 % | | 10:22 |
| 1153358 | 2026-09-03 10:22:28 | 89M1A | 35.0 °C | 60.3 % | | 10:22 |
| 1153357 | 2026-09-03 10:18:28 | 4529C | 30.6 °C | 52.4 % | | 10:18 |
| 1153356 | 2026-09-03 10:17:10 | 20402 | 29.7 °C | 42.7 % | | 10:17 |
| 1153355 | 2026-09-03 10:14:25 | 89M1B | 32.1 °C | 69.1 % | | 10:14 |
| 1153354 | 2026-09-03 10:13:09 | 4529A | 30.3 °C | 66.1 % | | 10:13 |
| 1153353 | 2026-09-03 10:13:09 | 4529D | 30.2 °C | 55.3 % | | 10:13 |
| 1153352 | 2026-09-03 10:12:50 | 89M1A | 34.9 °C | 61.1 % | | 10:12 |
| 1153351 | 2026-09-03 10:08:25 | 4529C | 30.5 °C | 52.3 % | | 10:08 |
| 1153350 | 2026-09-03 10:06:58 | 20402 | 29.4 °C | 41.7 % | | 10:06 |
| 1153349 | 2026-09-03 10:04:46 | 89M1B | 32.1 °C | 69.3 % | | 10:04 |
| 1153348 | 2026-09-03 10:03:35 | 4529D | 30.1 °C | 55.1 % | | 10:03 |
| 1153347 | 2026-09-03 10:03:12 | 89M1A | 34.8 °C | 61.8 % | | 10:03 |
| 1153346 | 2026-09-03 10:03:07 | 4529A | 29.9 °C | 65.8 % | | 10:03 |
| 1153345 | 2026-09-03 09:58:23 | 4529C | 30.5 °C | 53.3 % | | 09:58 |
| 1153344 | 2026-09-03 09:56:49 | 20402 | 29.3 °C | 41.1 % | | 09:56 |
| 1153343 | 2026-09-03 09:55:07 | 89M1B | 32.1 °C | 69.6 % | | 09:55 |
| 1153342 | 2026-09-03 09:54:03 | 4529D | 29.8 °C | 55.2 % | | 09:54 |
| 1153341 | 2026-09-03 09:53:33 | 89M1A | 34.1 °C | 62.6 % | | 09:53 |
| 1153340 | 2026-09-03 09:53:05 | 4529A | 30.4 °C | 68.8 % | | 09:53 |
| 1153339 | 2026-09-03 09:48:21 | 4529C | 30.4 °C | 54.5 % | | 09:48 |
| 1153338 | 2026-09-03 09:46:38 | 20402 | 29.1 °C | 40.8 % | | 09:46 |
| 1153337 | 2026-09-03 09:45:28 | 89M1B | 31.9 °C | 69.5 % | | 09:45 |
| 1153336 | 2026-09-03 09:44:29 | 4529D | 29.8 °C | 55.4 % | | 09:44 |
| 1153335 | 2026-09-03 09:43:53 | 89M1A | 33.8 °C | 62.2 % | | 09:43 |
| 1153334 | 2026-09-03 09:43:00 | 4529A | 29.8 °C | 66.1 % | | 09:43 |
| 1153333 | 2026-09-03 09:38:18 | 4529C | 30.3 °C | 55.1 % | | 09:38 |
| 1153332 | 2026-09-03 09:36:29 | 20402 | 28.8 °C | 40.9 % | | 09:36 |
| 1153331 | 2026-09-03 09:35:49 | 89M1B | 31.7 °C | 69.9 % | | 09:35 |
| 1153330 | 2026-09-03 09:34:57 | 4529D | 29.5 °C | 55.5 % | | 09:34 |
| 1153329 | 2026-09-03 09:34:15 | 89M1A | 33.9 °C | 63.5 % | | 09:34 |
| 1153328 | 2026-09-03 09:32:58 | 4529A | 30.1 °C | 69.7 % | | 09:32 |
| 1153327 | 2026-09-03 09:28:16 | 4529C | 30.3 °C | 55.1 % | | 09:28 |
| 1153326 | 2026-09-03 09:26:19 | 20402 | 27.8 °C | 42.0 % | | 09:26 |
| 1153325 | 2026-09-03 09:26:11 | 89M1B | 31.8 °C | 70.0 % | | 09:26 |
| 1153324 | 2026-09-03 09:25:24 | 4529D | 29.8 °C | 55.8 % | | 09:25 |
| 1153323 | 2026-09-03 09:24:37 | 89M1A | 33.9 °C | 64.8 % | | 09:24 |
| 1153322 | 2026-09-03 09:22:55 | 4529A | 29.4 °C | 69.1 % | | 09:22 |
| 1153321 | 2026-09-03 09:18:13 | 4529C | 30.2 °C | 55.0 % | | 09:18 |
| 1153320 | 2026-09-03 09:16:32 | 89M1B | 31.6 °C | 69.9 % | | 09:16 |
| 1153319 | 2026-09-03 09:16:09 | 20402 | 27.1 °C | 42.7 % | | 09:16 |
| 1153318 | 2026-09-03 09:15:52 | 4529D | 30.0 °C | 55.8 % | | 09:15 |
| 1153317 | 2026-09-03 09:14:58 | 89M1A | 33.0 °C | 66.4 % | | 09:14 |
| 1153316 | 2026-09-03 09:12:51 | 4529A | 29.8 °C | 69.9 % | | 09:12 |
| 1153315 | 2026-09-03 09:08:11 | 4529C | 30.1 °C | 55.2 % | | 09:08 |
| 1153314 | 2026-09-03 09:06:53 | 89M1B | 31.5 °C | 70.0 % | | 09:06 |
| 1153313 | 2026-09-03 09:06:19 | 4529D | 30.0 °C | 55.9 % | | 09:06 |
| 1153312 | 2026-09-03 09:05:59 | 20402 | 27.5 °C | 43.9 % | | 09:05 |
| 1153311 | 2026-09-03 09:05:21 | 89M1A | 32.9 °C | 65.7 % | | 09:05 |
| 1153310 | 2026-09-03 09:02:39 | 4529A | 29.6 °C | 69.6 % | | 09:02 |
| 1153309 | 2026-09-03 08:58:09 | 4529C | 30.1 °C | 55.3 % | | 08:58 |
| 1153308 | 2026-09-03 08:57:16 | 89M1B | 31.5 °C | 70.0 % | | 08:57 |
| 1153307 | 2026-09-03 08:56:46 | 4529D | 30.0 °C | 56.1 % | | 08:56 |
| 1153306 | 2026-09-03 08:55:49 | 20402 | 27.8 °C | 45.2 % | | 08:55 |
| 1153305 | 2026-09-03 08:55:42 | 89M1A | 32.5 °C | 69.5 % | | 08:55 |
| 1153304 | 2026-09-03 08:52:28 | 4529A | 29.7 °C | 62.6 % | | 08:52 |
| 1153303 | 2026-09-03 08:48:06 | 4529C | 30.0 °C | 55.1 % | | 08:48 |
| 1153302 | 2026-09-03 08:47:33 | 89M1B | 31.3 °C | 70.2 % | | 08:47 |
| 1153301 | 2026-09-03 08:47:13 | 4529D | 29.8 °C | 56.0 % | | 08:47 |
| 1153300 | 2026-09-03 08:46:04 | 89M1A | 31.7 °C | 70.3 % | | 08:46 |
| 1153299 | 2026-09-03 08:45:39 | 20402 | 28.2 °C | 46.9 % | | 08:45 |
| 1153298 | 2026-09-03 08:42:16 | 4529A | 30.2 °C | 68.1 % | | 08:42 |
| 1153297 | 2026-09-03 08:38:04 | 4529C | 29.9 °C | 55.3 % | | 08:38 |
| 1153296 | 2026-09-03 08:37:56 | 89M1B | 31.3 °C | 70.2 % | | 08:37 |
| 1153295 | 2026-09-03 08:37:40 | 4529D | 30.0 °C | 55.9 % | | 08:37 |
| 1153294 | 2026-09-03 08:36:27 | 89M1A | 31.7 °C | 69.9 % | | 08:36 |
| 1153293 | 2026-09-03 08:35:29 | 20402 | 28.8 °C | 49.6 % | | 08:35 |
| 1153292 | 2026-09-03 08:32:11 | 4529A | 29.7 °C | 65.6 % | | 08:32 |
| 1153291 | 2026-09-03 08:28:17 | 89M1B | 31.3 °C | 70.2 % | | 08:28 |
| 1153290 | 2026-09-03 08:28:07 | 4529D | 29.9 °C | 56.2 % | | 08:28 |
| 1153289 | 2026-09-03 08:28:01 | 4529C | 29.8 °C | 55.1 % | | 08:28 |
| 1153288 | 2026-09-03 08:26:49 | 89M1A | 31.6 °C | 71.9 % | | 08:26 |
| 1153287 | 2026-09-03 08:25:20 | 20402 | 28.8 °C | 49.7 % | | 08:25 |
| 1153286 | 2026-09-03 08:22:08 | 4529A | 30.4 °C | 68.6 % | | 08:22 |
| 1153285 | 2026-09-03 08:18:38 | 89M1B | 31.4 °C | 70.5 % | | 08:18 |
| 1153284 | 2026-09-03 08:18:35 | 4529D | 29.9 °C | 56.0 % | | 08:18 |
| 1153283 | 2026-09-03 08:17:59 | 4529C | 29.8 °C | 54.9 % | | 08:17 |
| 1153282 | 2026-09-03 08:17:10 | 89M1A | 30.8 °C | 74.0 % | | 08:17 |
| 1153281 | 2026-09-03 08:15:07 | 20402 | 30.3 °C | 53.7 % | | 08:15 |
| 1153280 | 2026-09-03 08:12:06 | 4529A | 29.9 °C | 67.1 % | | 08:12 |
| 1153279 | 2026-09-03 08:09:02 | 4529D | 29.9 °C | 55.9 % | | 08:09 |
| 1153278 | 2026-09-03 08:09:00 | 89M1B | 31.3 °C | 70.4 % | | 08:09 |
| 1153277 | 2026-09-03 08:07:56 | 4529C | 29.8 °C | 54.2 % | | 08:07 |
| 1153276 | 2026-09-03 08:07:32 | 89M1A | 30.8 °C | 74.3 % | | 08:07 |
| 1153275 | 2026-09-03 08:02:04 | 4529A | 30.4 °C | 66.6 % | | 08:02 |
| 1153274 | 2026-09-03 07:59:29 | 4529D | 29.6 °C | 55.8 % | | 07:59 |
| 1153273 | 2026-09-03 07:59:21 | 89M1B | 31.3 °C | 70.1 % | | 07:59 |
| 1153272 | 2026-09-03 07:57:54 | 4529C | 29.7 °C | 54.1 % | | 07:57 |
| 1153271 | 2026-09-03 07:57:53 | 89M1A | 30.3 °C | 76.9 % | | 07:57 |
| 1153270 | 2026-09-03 07:54:40 | 20402 | 30.4 °C | 52.4 % | | 07:54 |
Data every 20 minute.